| time (UTC) | temp F | wind direction | speed MPH | gust MPH | rain 1hr in | rain 24hr in | rain mn in | humidity % | barometer mb |
| 20260503173524 | 54 | 337 | 3.0 | 13.0 | 0.00 | 0.00 | 0.00 | 45 | 1020.4 |
| 20260503173024 | 54 | 331 | 5.0 | 10.0 | 0.00 | 0.00 | 0.00 | 43 | 1020.3 |
| 20260503172522 | 54 | 321 | 1.0 | 6.0 | 0.00 | 0.00 | 0.00 | 50 | 1020.4 |
| 20260503172022 | 53 | 300 | 1.0 | 8.0 | 0.00 | 0.00 | 0.00 | 56 | 1020.4 |
| 20260503171525 | 53 | 215 | 2.0 | 8.0 | 0.00 | 0.00 | 0.00 | 44 | 1020.5 |
| 20260503171021 | 53 | 345 | 4.0 | 7.0 | 0.00 | 0.00 | 0.00 | 47 | 1020.4 |
| 20260503170522 | 53 | 286 | 2.0 | 7.0 | 0.00 | 0.00 | 0.00 | 49 | 1020.6 |
| 20260503150600 | 46 | 224 | 5.0 | 9.0 | 0.00 | 0.00 | 0.00 | 50 | 1022.2 |
| 20260503131035 | 41 | 326 | 8.0 | 16.0 | 0.00 | 0.00 | 0.00 | 56 | 1021.8 |
| 20260503130535 | 41 | 1 | 8.0 | 16.0 | 0.00 | 0.00 | 0.00 | 59 | 1021.8 |
| 20260503110503 | 37 | 334 | 2.0 | 6.0 | 0.00 | 0.00 | 0.00 | 66 | 1020.4 |
| 20260503081531 | 39 | 233 | 1.0 | 5.0 | 0.00 | 0.00 | 0.00 | 65 | 1017.9 |
| 20260503081033 | 39 | 256 | 3.0 | 6.0 | 0.00 | 0.00 | 0.00 | 65 | 1017.9 |
| 20260503080529 | 39 | 321 | 1.0 | 8.0 | 0.00 | 0.00 | 0.00 | 64 | 1017.7 |
| 20260503072524 | 40 | 278 | 4.0 | 8.0 | 0.00 | 0.00 | 0.00 | 61 | 1017.5 |
| 20260503072027 | 40 | 298 | 3.0 | 10.0 | 0.00 | 0.00 | 0.00 | 61 | 1017.4 |
| 20260503071522 | 40 | 332 | 5.0 | 10.0 | 0.00 | 0.00 | 0.00 | 61 | 1017.4 |
| 20260503071022 | 40 | 291 | 2.0 | 7.0 | 0.00 | 0.00 | 0.00 | 63 | 1017.3 |
| 20260503070525 | 40 | 317 | 3.0 | 6.0 | 0.00 | 0.00 | 0.00 | 64 | 1017.4 |
| 20260503055014 | 41 | 300 | 3.0 | 7.0 | 0.00 | 0.00 | 0.00 | 61 | 1017.5 |
| 20260503054518 | 42 | 319 | 2.0 | 7.0 | 0.00 | 0.00 | 0.00 | 61 | 1017.5 |
| 20260503054012 | 42 | 305 | 2.0 | 7.0 | 0.00 | 0.00 | 0.00 | 61 | 1017.5 |
| 20260503053512 | 42 | 1 | 2.0 | 7.0 | 0.00 | 0.00 | 0.00 | 61 | 1017.5 |
| 20260503053016 | 41 | 301 | 4.0 | 7.0 | 0.00 | 0.00 | 0.00 | 61 | 1017.5 |
| 20260503052511 | 41 | 300 | 4.0 | 7.0 | 0.00 | 0.00 | 0.00 | 61 | 1017.4 |
| 20260503052011 | 41 | 321 | 3.0 | 6.0 | 0.00 | 0.00 | 0.00 | 61 | 1017.4 |
| 20260503051510 | 41 | 331 | 2.0 | 6.0 | 0.00 | 0.00 | 0.00 | 61 | 1017.3 |
| 20260503051009 | 41 | 1 | 3.0 | 6.0 | 0.00 | 0.00 | 0.00 | 61 | 1017.3 |
| 20260503050509 | 41 | 341 | 3.0 | 5.0 | 0.00 | 0.00 | 0.00 | 61 | 1017.3 |
| 20260503050008 | 41 | 338 | 3.0 | 6.0 | 0.00 | 0.00 | 0.00 | 61 | 1017.3 |
| 20260503045513 | 42 | 11 | 2.0 | 7.0 | 0.00 | 0.00 | 0.00 | 60 | 1017.2 |
| 20260503045007 | 42 | 6 | 4.0 | 9.0 | 0.00 | 0.00 | 0.00 | 61 | 1017.2 |
| 20260503044507 | 42 | 344 | 4.0 | 9.0 | 0.00 | 0.00 | 0.00 | 60 | 1017.1 |
| 20260503044005 | 42 | 340 | 3.0 | 10.0 | 0.00 | 0.00 | 0.00 | 60 | 1017.2 |
| 20260503043504 | 42 | 329 | 4.0 | 10.0 | 0.00 | 0.00 | 0.00 | 60 | 1017.2 |
| 20260503043004 | 42 | 315 | 4.0 | 8.0 | 0.00 | 0.00 | 0.00 | 59 | 1017.1 |
| 20260503042502 | 42 | 319 | 2.0 | 6.0 | 0.00 | 0.00 | 0.00 | 59 | 1017.2 |
| 20260503042002 | 42 | 317 | 2.0 | 5.0 | 0.00 | 0.00 | 0.00 | 58 | 1017.1 |
| 20260503041502 | 42 | 329 | 3.0 | 6.0 | 0.00 | 0.00 | 0.00 | 58 | 1017.2 |
| 20260503041102 | 43 | 271 | 2.0 | 8.0 | 0.00 | 0.00 | 0.00 | 58 | 1017.2 |
| 20260503040559 | 43 | 325 | 4.0 | 8.0 | 0.00 | 0.00 | 0.00 | 58 | 1017.2 |
| 20260503040058 | 43 | 15 | 2.0 | 7.0 | 0.00 | 0.00 | 0.00 | 58 | 1017.2 |
| 20260503035602 | 43 | 313 | 3.0 | 8.0 | 0.00 | 0.00 | 0.00 | 57 | 1017.1 |
| 20260503035058 | 43 | 310 | 3.0 | 8.0 | 0.00 | 0.00 | 0.00 | 57 | 1017.2 |
| 20260503034557 | 43 | 308 | 3.0 | 6.0 | 0.00 | 0.00 | 0.00 | 57 | 1017.1 |
| 20260503034057 | 43 | 9 | 2.0 | 7.0 | 0.00 | 0.00 | 0.00 | 57 | 1017.2 |
| 20260503033103 | 43 | 315 | 5.0 | 9.0 | 0.00 | 0.00 | 0.00 | 57 | 1017.1 |
| 20260503032551 | 43 | 292 | 3.0 | 7.0 | 0.00 | 0.00 | 0.00 | 57 | 1017.1 |
| 20260503032048 | 43 | 261 | 2.0 | 5.0 | 0.00 | 0.00 | 0.00 | 56 | 1017.1 |
| 20260503031548 | 43 | 268 | 2.0 | 5.0 | 0.00 | 0.00 | 0.00 | 56 | 1017.0 |
| 20260503031048 | 43 | 321 | 2.0 | 5.0 | 0.00 | 0.00 | 0.00 | 56 | 1016.8 |
| 20260503030548 | 43 | 321 | 2.0 | 5.0 | 0.00 | 0.00 | 0.00 | 55 | 1016.9 |
| 20260503030050 | 43 | 1 | 1.0 | 5.0 | 0.00 | 0.00 | 0.00 | 56 | 1016.8 |
| 20260503025547 | 44 | 321 | 2.0 | 6.0 | 0.00 | 0.00 | 0.00 | 55 | 1016.8 |
| 20260503025047 | 44 | 306 | 2.0 | 6.0 | 0.00 | 0.00 | 0.00 | 55 | 1016.8 |
| 20260503024546 | 44 | 345 | 2.0 | 5.0 | 0.00 | 0.00 | 0.00 | 55 | 1016.8 |
| 20260503024046 | 44 | 305 | 2.0 | 5.0 | 0.00 | 0.00 | 0.00 | 54 | 1016.9 |
| 20260503023546 | 44 | 321 | 2.0 | 6.0 | 0.00 | 0.00 | 0.00 | 54 | 1016.9 |
| 20260503023051 | 44 | 252 | 2.0 | 6.0 | 0.00 | 0.00 | 0.00 | 54 | 1016.8 |
| 20260503022546 | 44 | 238 | 2.0 | 6.0 | 0.00 | 0.00 | 0.00 | 54 | 1016.9 |
| 20260503022046 | 44 | 320 | 2.0 | 5.0 | 0.00 | 0.00 | 0.00 | 54 | 1016.9 |
| 20260503021551 | 44 | 304 | 2.0 | 9.0 | 0.00 | 0.00 | 0.00 | 54 | 1016.9 |
| 20260503021046 | 44 | 339 | 3.0 | 9.0 | 0.00 | 0.00 | 0.00 | 54 | 1017.0 |
| 20260503020546 | 44 | 330 | 3.0 | 6.0 | 0.00 | 0.00 | 0.00 | 53 | 1017.0 |
| 20260503020054 | 45 | 282 | 1.0 | 4.0 | 0.00 | 0.00 | 0.00 | 53 | 1016.9 |
| 20260503015549 | 45 | 304 | 2.0 | 4.0 | 0.00 | 0.00 | 0.00 | 53 | 1017.0 |
| 20260503015044 | 45 | 307 | 0.0 | 6.0 | 0.00 | 0.00 | 0.00 | 53 | 1017.0 |
| 20260503014100 | 45 | 304 | 2.0 | 5.0 | 0.00 | 0.00 | 0.00 | 51 | 1016.8 |
| 20260503013600 | 45 | 309 | 1.0 | 7.0 | 0.00 | 0.00 | 0.00 | 52 | 1016.8 |
| 20260503013100 | 46 | 312 | 2.0 | 9.0 | 0.00 | 0.00 | 0.00 | 50 | 1016.8 |
| 20260503012602 | 45 | 311 | 2.0 | 9.0 | 0.00 | 0.00 | 0.00 | 51 | 1016.7 |
| 20260503012059 | 45 | 313 | 3.0 | 8.0 | 0.00 | 0.00 | 0.00 | 52 | 1016.5 |
| 20260503011608 | 46 | 264 | 4.0 | 8.0 | 0.00 | 0.00 | 0.00 | 52 | 1016.5 |
| 20260503011102 | 46 | 278 | 3.0 | 8.0 | 0.00 | 0.00 | 0.00 | 51 | 1016.4 |
| 20260503010600 | 46 | 292 | 3.0 | 8.0 | 0.00 | 0.00 | 0.00 | 50 | 1016.4 |
| 20260503010103 | 46 | 224 | 2.0 | 6.0 | 0.00 | 0.00 | 0.00 | 51 | 1016.4 |
| 20260503005600 | 47 | 301 | 2.0 | 5.0 | 0.00 | 0.00 | 0.00 | 51 | 1016.4 |
| 20260503005058 | 47 | 261 | 1.0 | 6.0 | 0.00 | 0.00 | 0.00 | 51 | 1016.2 |
| 20260503004602 | 47 | 248 | 2.0 | 8.0 | 0.00 | 0.00 | 0.00 | 51 | 1016.2 |
| 20260503004057 | 47 | 295 | 3.0 | 8.0 | 0.00 | 0.00 | 0.00 | 50 | 1016.1 |
| 20260503003557 | 47 | 314 | 1.0 | 7.0 | 0.00 | 0.00 | 0.00 | 51 | 1016.1 |
| 20260503003103 | 47 | 305 | 2.0 | 7.0 | 0.00 | 0.00 | 0.00 | 51 | 1016.0 |
| 20260503002557 | 48 | 333 | 1.0 | 6.0 | 0.00 | 0.00 | 0.00 | 50 | 1016.0 |
| 20260503002059 | 48 | 323 | 2.0 | 6.0 | 0.00 | 0.00 | 0.00 | 51 | 1015.8 |
| 20260503001604 | 48 | 301 | 2.0 | 8.0 | 0.00 | 0.00 | 0.00 | 49 | 1015.8 |
| 20260503001057 | 48 | 309 | 2.0 | 8.0 | 0.00 | 0.00 | 0.00 | 49 | 1015.8 |
| 20260503000557 | 48 | 340 | 3.0 | 9.0 | 0.00 | 0.00 | 0.00 | 48 | 1015.6 |
| 20260503000055 | 49 | 290 | 4.0 | 10.0 | 0.00 | 0.00 | 0.00 | 48 | 1015.7 |
| 20260502235555 | 49 | 293 | 2.0 | 10.0 | 0.00 | 0.00 | 0.00 | 49 | 1015.6 |
| 20260502235058 | 49 | 324 | 5.0 | 9.0 | 0.00 | 0.00 | 0.00 | 48 | 1015.4 |
| 20260502234557 | 49 | 252 | 3.0 | 9.0 | 0.00 | 0.00 | 0.00 | 47 | 1015.5 |
| 20260502234057 | 49 | 236 | 4.0 | 11.0 | 0.00 | 0.00 | 0.00 | 47 | 1015.4 |
| 20260502233555 | 50 | 345 | 3.0 | 12.0 | 0.00 | 0.00 | 0.00 | 47 | 1015.3 |
| 20260502233056 | 50 | 319 | 6.0 | 12.0 | 0.00 | 0.00 | 0.00 | 47 | 1015.1 |
| 20260502232555 | 50 | 216 | 5.0 | 12.0 | 0.00 | 0.00 | 0.00 | 46 | 1015.1 |
| 20260502232055 | 50 | 277 | 5.0 | 10.0 | 0.00 | 0.00 | 0.00 | 47 | 1014.9 |
| 20260502231558 | 51 | 274 | 5.0 | 11.0 | 0.00 | 0.00 | 0.00 | 45 | 1014.8 |
| 20260502231057 | 51 | 298 | 5.0 | 14.0 | 0.00 | 0.00 | 0.00 | 45 | 1014.8 |
| 20260502230554 | 52 | 326 | 5.0 | 10.0 | 0.00 | 0.00 | 0.00 | 46 | 1014.8 |
| 20260502230054 | 53 | 328 | 4.0 | 15.0 | 0.00 | 0.00 | 0.00 | 47 | 1014.8 |
| 20260502225553 | 53 | 282 | 5.0 | 15.0 | 0.00 | 0.00 | 0.00 | 45 | 1014.7 |
| 20260502225053 | 53 | 245 | 5.0 | 13.0 | 0.00 | 0.00 | 0.00 | 45 | 1014.5 |
| 20260502224556 | 53 | 314 | 7.0 | 13.0 | 0.00 | 0.00 | 0.00 | 44 | 1014.5 |
| 20260502224053 | 53 | 295 | 6.0 | 16.0 | 0.00 | 0.00 | 0.00 | 45 | 1014.4 |
| 20260502223553 | 53 | 330 | 7.0 | 16.0 | 0.00 | 0.00 | 0.00 | 45 | 1014.3 |
| 20260502223053 | 54 | 283 | 7.0 | 14.0 | 0.00 | 0.00 | 0.00 | 45 | 1014.3 |
| 20260502222553 | 54 | 328 | 6.0 | 14.0 | 0.00 | 0.00 | 0.00 | 46 | 1014.3 |
| 20260502222052 | 55 | 1 | 5.0 | 15.0 | 0.00 | 0.00 | 0.00 | 44 | 1014.4 |
| 20260502221552 | 55 | 272 | 4.0 | 15.0 | 0.00 | 0.00 | 0.00 | 45 | 1014.3 |
| 20260502221052 | 54 | 284 | 5.0 | 15.0 | 0.00 | 0.00 | 0.00 | 45 | 1014.3 |
| 20260502220555 | 54 | 305 | 5.0 | 15.0 | 0.00 | 0.00 | 0.00 | 46 | 1014.2 |
| 20260502220135 | 54 | 326 | 6.0 | 13.0 | 0.00 | 0.00 | 0.00 | 46 | 1014.3 |
| 20260502215553 | 54 | 290 | 4.0 | 12.0 | 0.00 | 0.00 | 0.00 | 46 | 1014.3 |
| 20260502215053 | 54 | 287 | 5.0 | 13.0 | 0.00 | 0.00 | 0.00 | 47 | 1014.2 |
| 20260502214552 | 54 | 254 | 5.0 | 13.0 | 0.00 | 0.00 | 0.00 | 46 | 1014.2 |
| 20260502214054 | 54 | 300 | 3.0 | 10.0 | 0.00 | 0.00 | 0.00 | 48 | 1014.0 |
| 20260502213551 | 54 | 307 | 4.0 | 12.0 | 0.00 | 0.00 | 0.00 | 46 | 1013.8 |
| 20260502213053 | 54 | 283 | 4.0 | 12.0 | 0.00 | 0.00 | 0.00 | 48 | 1013.8 |
| 20260502212551 | 54 | 301 | 6.0 | 14.0 | 0.00 | 0.00 | 0.00 | 45 | 1013.9 |
| 20260502212053 | 54 | 316 | 8.0 | 14.0 | 0.00 | 0.00 | 0.00 | 44 | 1013.8 |
| 20260502211551 | 54 | 337 | 6.0 | 15.0 | 0.00 | 0.00 | 0.00 | 46 | 1013.8 |
| 20260502211050 | 54 | 323 | 7.0 | 15.0 | 0.00 | 0.00 | 0.00 | 45 | 1013.8 |
| 20260502210550 | 55 | 311 | 7.0 | 12.0 | 0.00 | 0.00 | 0.00 | 45 | 1013.6 |
| 20260502210100 | 55 | 314 | 6.0 | 12.0 | 0.00 | 0.00 | 0.00 | 44 | 1013.5 |
| 20260502205549 | 55 | 1 | 6.0 | 12.0 | 0.00 | 0.00 | 0.00 | 45 | 1013.5 |
| 20260502205050 | 56 | 260 | 5.0 | 10.0 | 0.00 | 0.00 | 0.00 | 44 | 1013.5 |
| 20260502204601 | 56 | 319 | 4.0 | 10.0 | 0.00 | 0.00 | 0.00 | 47 | 1013.6 |
| 20260502204049 | 56 | 285 | 5.0 | 10.0 | 0.00 | 0.00 | 0.00 | 42 | 1013.5 |
| 20260502203549 | 56 | 263 | 5.0 | 10.0 | 0.00 | 0.00 | 0.00 | 43 | 1013.5 |
| 20260502203102 | 56 | 268 | 4.0 | 9.0 | 0.00 | 0.00 | 0.00 | 42 | 1013.3 |
| 20260502202549 | 56 | 314 | 4.0 | 8.0 | 0.00 | 0.00 | 0.00 | 44 | 1013.4 |
| 20260502202051 | 56 | 323 | 2.0 | 7.0 | 0.00 | 0.00 | 0.00 | 42 | 1013.4 |
| 20260502201549 | 55 | 337 | 4.0 | 7.0 | 0.00 | 0.00 | 0.00 | 42 | 1013.4 |
| 20260502201049 | 55 | 295 | 2.0 | 5.0 | 0.00 | 0.00 | 0.00 | 42 | 1013.4 |
| 20260502200549 | 56 | 271 | 2.0 | 8.0 | 0.00 | 0.00 | 0.00 | 42 | 1013.4 |
| 20260502200049 | 56 | 23 | 5.0 | 8.0 | 0.00 | 0.00 | 0.00 | 45 | 1013.2 |
| 20260502195547 | 56 | 330 | 2.0 | 5.0 | 0.00 | 0.00 | 0.00 | 47 | 1013.3 |
| 20260502195047 | 57 | 275 | 1.0 | 6.0 | 0.00 | 0.00 | 0.00 | 43 | 1013.3 |
| 20260502194553 | 58 | 311 | 3.0 | 6.0 | 0.00 | 0.00 | 0.00 | 45 | 1013.5 |
| 20260502194047 | 58 | 34 | 1.0 | 4.0 | 0.00 | 0.00 | 0.00 | 45 | 1013.3 |
| 20260502193547 | 58 | 172 | 1.0 | 5.0 | 0.00 | 0.00 | 0.00 | 47 | 1013.6 |
| 20260502193048 | 58 | 242 | 1.0 | 5.0 | 0.00 | 0.00 | 0.00 | 45 | 1013.6 |
| 20260502192550 | 58 | 242 | 1.0 | 5.0 | 0.00 | 0.00 | 0.00 | 45 | 1013.6 |
| 20260502192044 | 57 | 329 | 3.0 | 5.0 | 0.00 | 0.00 | 0.00 | 46 | 1013.6 |
| 20260502191544 | 57 | 326 | 1.0 | 9.0 | 0.00 | 0.00 | 0.00 | 46 | 1014.0 |
| 20260502191048 | 57 | 221 | 3.0 | 9.0 | 0.00 | 0.00 | 0.00 | 42 | 1014.0 |
| 20260502190544 | 57 | 327 | 1.0 | 10.0 | 0.00 | 0.00 | 0.00 | 41 | 1014.0 |
| 20260502190045 | 56 | 314 | 4.0 | 10.0 | 0.00 | 0.00 | 0.00 | 50 | 1014.0 |
| 20260502185541 | 56 | 29 | 2.0 | 7.0 | 0.00 | 0.00 | 0.00 | 47 | 1014.1 |
| 20260502185041 | 56 | 8 | 3.0 | 9.0 | 0.00 | 0.00 | 0.00 | 46 | 1014.1 |
| 20260502184542 | 56 | 65 | 5.0 | 9.0 | 0.00 | 0.00 | 0.00 | 51 | 1014.1 |
| 20260502184040 | 56 | 44 | 3.0 | 9.0 | 0.00 | 0.00 | 0.00 | 51 | 1014.2 |
| 20260502183539 | 57 | 20 | 1.0 | 6.0 | 0.00 | 0.00 | 0.00 | 42 | 1014.3 |
| 20260502183043 | 57 | 1 | 1.0 | 8.0 | 0.00 | 0.00 | 0.00 | 44 | 1014.3 |
| 20260502182536 | 56 | 293 | 1.0 | 8.0 | 0.00 | 0.00 | 0.00 | 50 | 1014.4 |
| 20260502182035 | 55 | 250 | 1.0 | 7.0 | 0.00 | 0.00 | 0.00 | 54 | 1014.5 |
| 20260502181537 | 54 | 44 | 3.0 | 7.0 | 0.00 | 0.00 | 0.00 | 47 | 1014.7 |
| 20260502181036 | 54 | 11 | 2.0 | 7.0 | 0.00 | 0.00 | 0.00 | 44 | 1014.7 |
| 20260502180534 | 54 | 290 | 3.0 | 7.0 | 0.00 | 0.00 | 0.00 | 45 | 1014.8 |